Location: S�tio Afonso Gruber
(26.1760°S, 49.5250°W)
Time: 04:27:45
(UTC+00:00)

N. Korean satellite - Visible Passes

Search period start: 26 February 2021 00:00
Search period end: 08 March 2021 00:00
Orbit: 451 x 503 km, 97.2° (Epoch: 25 February)

Date Brightness Start Highest point End Pass type
(mag) Time Alt. Az. Time Alt. Az. Time Alt. Az.
26 Feb 6.9 07:59:35 10° NNE 08:03:12 70° ESE 08:06:56 10° S visible
27 Feb 8.9 07:33:29 10° NE 07:36:36 27° ESE 07:39:48 10° SSE visible
28 Feb 10.1 07:08:42 10° E 07:10:06 12° ESE 07:11:30 10° SE visible
28 Feb 7.6 08:39:53 10° NNW 08:43:02 27° W 08:46:16 10° SW visible
01 Mar 6.5 08:12:38 10° N 08:16:18 72° W 08:20:02 10° SSW visible
02 Mar 7.9 07:46:09 10° NNE 07:49:38 42° ESE 07:53:11 10° S visible
03 Mar 9.6 07:20:30 10° ENE 07:23:04 18° ESE 07:25:38 10° SSE visible
04 Mar 6.9 08:25:50 10° N 08:29:21 43° W 08:32:56 10° SSW visible
05 Mar 6.9 07:58:57 10° NNE 08:02:37 69° ESE 08:06:21 10° S visible
06 Mar 8.9 07:32:49 10° NE 07:35:59 27° ESE 07:39:10 10° SSE visible
07 Mar 10.1 07:08:02 10° E 07:09:25 12° ESE 07:10:48 10° SE visible
07 Mar 7.5 08:39:10 10° NNW 08:42:21 28° W 08:45:36 10° SW visible
